Temperature
21 21 21 21 18 18 19 20 21 21 21 21 21 20 19 18 18 17 18 18 18 18 18 18 18 18 18 18 18 17 17 17 17 18 18 17 18 17 18 18 18 18 18 18 18 18 18 18 18
22 21 21 20 18 18 19 20 21 22 22 22 21 20 19 18 18 18 17 18 18 18 18 18 18 18 18 18 17 17 17 17 17 17 17 17 17 17 17 17 17 17 18 18 17 18 18 18 18
22 21 21 18 19 19 20 21 21 22 23 22 21 20 19 19 18 18 18 18 18 18 18 18 18 18 18 18 17 17 17 17 17 17 17 17 17 17 17 17 17 17 17 17 17 17 17 17 17
22 21 21 18 20 20 21 21 22 22 22 22 21 19 19 19 19 18 18 18 18 18 18 18 18 18 17 17 17 17 17 17 17 17 17 17 17 17 17 17 17 17 17 17 17 17 17 17 17
22 21 19 19 20 21 22 22 23 22 21 21 20 19 19 19 19 18 18 18 18 18 18 18 18 18 17 17 17 17 17 17 17 17 17 17 17 17 17 17 17 17 17 17 17 17 17 17 17
22 19 18 19 21 21 22 23 23 21 21 21 20 19 19 19 19 18 18 18 18 18 18 18 18 17 17 17 17 17 17 17 17 17 17 17 17 17 17 17 17 17 17 17 17 17 17 17 17
21 18 19 20 20 21 22 23 22 21 21 21 20 19 19 19 19 19 18 18 18 18 18 18 18 17 17 17 17 17 17 17 17 17 17 17 17 17 17 17 17 17 17 16 16 16 16 17 17
22 19 20 20 20 21 23 23 23 22 22 21 21 19 19 19 19 19 18 18 18 18 18 18 18 18 17 17 17 17 17 17 17 17 17 17 17 17 17 17 16 16 16 16 16 16 16 16 16
23 19 19 20 20 21 23 23 23 23 22 22 21 21 20 19 19 19 18 18 18 18 18 18 18 18 17 17 17 17 17 17 17 17 17 17 17 16 16 16 16 16 16 16 16 16 16 16 16
22 19 21 21 21 21 22 22 23 22 21 21 21 21 20 20 19 19 19 18 18 18 18 18 18 18 17 17 17 17 17 17 17 17 16 16 16 16 16 16 16 16 16 16 16 16 16 16 16
22 20 22 22 23 23 23 22 23 21 20 20 21 20 20 20 19 19 19 19 19 18 18 18 18 18 18 17 17 17 17 17 17 17 17 16 16 16 16 16 16 16 16 16 16 16 16 16 16
22 22 23 23 24 23 23 23 22 22 22 22 22 21 20 20 20 20 19 19 19 18 18 18 18 18 18 17 17 17 17 17 17 17 17 16 16 16 16 16 16 16 16 16 16 16 16 16 16
22 22 24 24 24 23 23 22 22 22 22 22 21 21 21 20 20 20 20 19 19 19 18 18 18 18 18 18 17 17 17 17 17 17 17 16 16 16 16 16 16 16 16 16 16 16 16 16 16
23 23 23 24 23 23 22 22 22 21 22 21 21 21 21 20 20 20 20 19 19 19 19 18 18 18 18 18 17 17 17 17 17 17 17 16 16 16 16 16 16 16 16 16 16 16 16 15 15
24 22 22 23 23 23 22 21 21 22 22 21 21 21 21 21 20 20 20 20 19 19 19 18 18 18 18 18 17 17 17 17 17 17 17 16 16 16 16 16 16 16 16 16 16 15 15 15 15
22 21 21 22 22 22 21 20 20 22 21 21 21 21 21 21 20 20 20 20 20 19 19 18 18 18 18 18 17 17 17 17 17 17 16 16 16 16 16 16 16 16 16 15 15 15 15 15 15
21 20 20 21 22 22 21 20 20 22 21 21 21 21 21 20 20 20 20 20 20 19 19 19 18 18 18 18 17 17 17 17 17 17 16 16 16 16 16 16 15 15 15 15 15 15 15 15 15
20 20 21 21 22 21 20 20 20 21 21 20 20 21 20 20 20 20 20 20 20 19 19 19 18 18 18 17 17 17 17 17 16 16 16 16 16 16 16 16 15 15 15 15 15 15 15 15 15
21 21 21 21 22 21 20 20 20 20 20 20 20 20 20 20 20 20 20 20 20 19 19 19 18 18 18 17 17 17 17 17 16 16 16 16 16 16 16 15 15 15 15 15 15 15 15 15 15
22 21 21 21 22 22 20 20 20 20 20 20 20 20 20 20 20 20 20 20 20 19 19 19 18 18 18 18 17 17 17 16 16 16 16 16 16 16 16 15 15 15 15 15 15 15 14 14 14
21 21 21 21 21 21 21 20 19 20 20 20 21 21 21 20 20 20 20 20 19 19 19 19 18 18 18 18 17 17 17 16 16 16 16 16 15 15 15 15 15 15 15 15 15 14 14 14 14
21 22 22 22 20 19 20 18 19 19 19 19 20 20 20 20 20 20 20 19 19 19 19 19 18 18 18 18 17 17 17 16 16 16 16 16 15 15 15 15 15 15 15 15 14 14 14 14 14
22 22 22 21 20 19 19 18 18 18 18 19 19 20 20 20 20 20 20 20 19 19 19 19 18 18 18 18 17 17 17 16 16 16 16 15 15 15 15 15 15 15 15 14 14 14 14 14 14
22 21 20 18 18 18 19 18 18 17 18 19 19 19 20 20 20 20 19 19 19 19 19 19 18 18 18 17 17 17 17 16 16 16 16 15 15 15 15 15 15 14 14 14 14 14 14 14 14
20 18 17 18 17 17 18 18 18 18 19 19 19 19 20 20 19 19 19 19 19 19 19 18 18 18 18 17 17 16 16 16 16 16 15 15 15 15 15 15 14 14 14 14 14 14 14 13 13
20 18 17 17 17 17 18 18 18 19 20 20 20 19 19 19 19 19 19 19 19 19 19 18 18 18 17 17 17 16 16 16 16 16 15 15 15 15 15 14 14 14 14 14 14 14 14 13 13
20 18 18 17 17 17 17 18 19 19 19 19 19 19 19 19 19 19 19 19 19 18 18 18 18 17 17 17 16 16 16 16 16 16 15 15 15 15 14 14 14 14 14 14 14 14 13 13 13
20 19 16 17 17 17 17 18 17 19 18 18 18 18 18 19 19 19 19 19 18 18 18 18 17 17 17 17 16 16 16 15 15 15 15 15 15 14 14 14 14 14 14 14 14 13 13 13 13
20 19 17 15 16 16 16 17 18 18 18 18 17 18 18 18 19 18 18 18 18 18 18 17 17 17 16 16 16 16 15 15 15 15 15 15 15 14 14 14 14 13 13 13 13 13 13 13 13
19 19 17 16 16 15 15 16 18 18 18 18 18 18 18 19 18 18 18 18 18 17 17 17 17 16 16 16 16 16 15 15 15 15 15 14 14 14 14 14 13 13 13 13 13 13 13 13 12
Wind_Speed
2 0 3 3 5 5 2 1 2 3 4 5 8 9 8 6 4 4 2 5 7 5 5 6 7 8 8 9 9 9 10 10 10 11 11 11 11 11 11 11 11 11 10 9 9 9 9 8 8
0 1 3 4 5 4 1 1 4 4 7 8 9 8 7 6 4 5 3 5 7 6 7 7 8 8 8 9 9 10 10 10 10 11 11 11 11 11 11 11 10 11 10 10 10 9 9 9 8
1 1 3 4 3 4 3 2 5 5 6 6 5 6 5 5 4 4 5 8 8 7 7 8 9 8 9 9 10 10 10 10 10 10 11 11 12 11 11 11 11 11 10 10 11 10 10 9 8
2 4 4 4 3 1 4 4 6 7 6 6 7 6 4 3 5 6 9 9 9 6 7 8 9 9 9 9 10 10 10 11 11 11 11 11 12 11 11 11 11 11 11 11 10 10 10 10 10
3 4 4 3 2 1 3 5 6 7 4 5 8 6 3 2 7 10 10 9 9 6 6 8 10 10 10 10 10 10 10 11 11 11 11 11 11 11 11 11 11 10 10 10 10 10 10 10 10
3 4 4 3 2 2 3 5 8 8 7 7 8 7 2 3 8 9 9 8 9 7 6 7 9 10 10 10 10 10 10 10 10 10 10 10 10 9 10 10 10 10 9 9 9 9 10 10 10
4 4 3 4 3 3 3 4 7 7 6 5 8 6 3 3 6 8 8 8 7 7 5 5 7 8 9 9 9 9 9 9 9 9 10 10 10 9 9 9 9 9 9 9 8 8 9 9 10
5 4 3 2 4 1 1 3 5 7 5 6 6 8 6 7 7 8 7 7 7 6 5 5 5 6 6 6 7 8 8 8 8 8 8 8 8 8 8 7 7 7 8 8 8 8 8 8 9
4 5 2 3 4 3 2 4 3 5 7 4 4 6 8 11 9 8 6 4 5 6 5 4 4 5 5 5 5 5 5 5 6 6 6 6 5 5 5 5 6 7 7 7 7 7 7 8 8
4 4 4 4 5 4 3 4 3 5 7 5 5 5 9 10 10 9 8 6 6 6 5 5 4 4 4 4 4 3 2 3 3 3 4 4 3 2 2 3 4 5 6 6 6 6 6 6 6
4 5 3 3 4 5 4 2 2 8 5 7 10 10 10 9 9 10 9 8 7 7 6 6 5 4 4 2 3 2 2 2 2 3 4 4 3 2 2 2 3 4 4 4 5 6 5 5 5
3 3 4 4 4 4 4 3 3 5 7 10 13 13 11 11 10 10 9 8 7 7 7 6 6 5 4 3 3 2 2 1 1 3 5 5 3 2 2 1 2 2 3 3 4 3 4 5 5
3 2 2 4 5 5 5 4 4 3 5 9 11 10 10 10 9 8 8 7 7 7 7 7 6 5 4 3 2 2 2 2 2 4 5 6 4 2 2 2 2 2 3 3 3 3 4 4 4
4 3 2 3 3 3 5 2 4 4 6 9 10 9 9 9 9 8 7 7 7 7 7 6 6 5 4 3 2 2 2 3 3 4 5 7 6 4 3 3 2 2 4 4 4 4 4 3 4
3 2 1 1 4 3 6 1 4 6 7 8 9 8 8 8 8 9 9 8 8 8 7 7 7 6 5 4 3 3 3 4 3 4 6 7 7 6 4 3 3 2 5 6 5 5 4 4 4
2 2 1 3 3 4 6 4 6 6 8 7 7 7 7 6 8 8 8 8 8 8 7 7 7 7 5 4 3 3 4 4 3 5 6 6 7 7 5 4 3 3 5 4 4 3 3 3 3
2 1 3 3 4 4 5 4 5 5 8 7 7 7 6 5 6 6 8 9 8 9 8 7 7 7 6 5 3 4 4 4 4 5 5 6 7 7 6 4 3 5 4 3 3 3 3 3 3
4 3 3 4 4 5 5 5 4 6 8 8 7 6 7 7 7 7 7 8 8 8 8 7 6 6 6 4 4 3 4 3 3 3 4 6 6 7 7 4 4 5 4 3 3 3 3 2 2
4 4 4 5 4 5 6 6 6 7 6 6 7 7 7 8 7 6 7 8 8 7 7 6 6 5 5 4 3 3 2 1 1 2 4 5 6 6 6 4 4 4 3 3 3 3 3 2 2
4 3 3 2 2 3 4 5 6 7 9 9 10 9 10 7 5 5 6 7 7 7 7 7 6 6 5 4 3 3 3 1 1 1 3 4 5 5 5 5 4 4 3 3 3 3 2 1 2
4 5 5 3 2 1 2 3 3 4 4 5 7 9 10 11 10 8 8 7 7 7 8 8 7 6 5 5 3 3 3 3 2 2 1 1 3 4 4 5 4 3 3 3 3 3 4 2 1
5 5 5 3 1 3 3 2 5 5 5 6 6 7 8 9 9 9 9 8 8 8 7 8 7 6 5 6 6 6 4 2 2 1 1 1 2 3 4 4 4 3 3 3 3 3 3 3 1
5 4 3 2 2 2 1 3 6 3 6 8 7 7 8 9 10 10 10 9 8 8 7 7 6 5 5 5 6 6 4 2 1 1 1 1 1 1 3 4 3 3 2 3 3 3 3 3 3
2 2 4 4 3 3 6 5 5 5 8 8 7 8 9 9 9 8 7 7 6 6 6 7 7 5 5 5 6 6 6 4 3 2 1 0 0 0 1 2 2 2 2 3 3 3 4 3 3
4 5 3 3 2 5 3 4 6 6 7 9 10 9 8 8 9 8 8 7 7 6 6 6 7 6 5 5 5 5 6 5 5 3 3 2 1 0 1 1 1 2 2 3 3 3 3 3 3
3 7 6 4 4 4 2 4 5 4 4 6 7 8 8 8 8 9 9 8 8 7 7 7 6 5 5 5 5 4 5 4 3 3 3 3 2 2 2 2 2 2 2 2 3 3 2 3 3
3 3 7 5 2 2 3 3 3 2 2 5 6 7 8 8 8 8 8 7 8 7 7 7 7 5 5 5 4 3 4 4 3 3 3 2 2 1 2 2 2 1 2 2 3 2 2 2 2
5 6 5 3 2 3 4 3 4 5 5 5 6 7 6 6 6 7 7 7 6 6 6 6 7 6 4 4 4 3 3 3 3 3 3 2 2 1 2 1 1 1 1 2 2 1 2 2 2
1 3 4 4 4 4 3 5 5 8 8 8 8 8 8 7 7 7 6 6 6 5 5 5 4 4 4 3 3 3 2 2 2 2 2 2 1 1 1 2 2 2 2 2 2 2 2 2 2
5 5 6 5 3 5 4 6 5 5 6 7 7 6 6 6 6 6 6 6 6 5 4 5 4 4 4 4 4 4 3 3 2 2 1 1 1 1 1 1 1 1 1 2 3 3 2 2 2
Wind_Direction
262 208 102 66 55 55 63 355 131 91 67 68 77 83 84 69 89 129 209 142 138 138 134 116 107 99 96 98 94 90 86 84 84 83 84 83 82 82 85 86 84 81 83 84 88 92 94 95 100
296 111 71 61 80 80 17 215 104 111 134 120 85 83 80 73 90 117 133 137 132 127 125 115 110 106 103 101 98 94 91 89 87 86 87 85 84 84 85 86 86 83 81 81 83 85 88 89 91
225 115 80 68 91 139 159 173 129 108 110 105 88 64 80 109 115 137 154 138 122 117 122 121 114 111 109 106 103 98 95 93 90 89 88 86 85 86 86 85 85 85 83 83 83 81 82 85 86
78 51 57 72 86 168 160 163 132 108 78 72 97 72 67 107 139 143 137 129 119 114 121 122 118 116 116 111 107 103 100 96 92 90 90 89 87 86 86 85 82 83 84 84 83 82 81 83 84
74 77 65 68 86 112 126 133 119 106 97 87 94 95 77 59 118 129 133 130 126 125 125 125 122 119 116 113 111 108 105 100 95 93 92 94 92 88 86 86 82 82 84 83 83 81 82 82 82
63 74 86 95 82 50 80 106 96 94 110 109 103 112 129 142 130 139 140 136 134 135 130 124 121 118 116 115 114 112 108 103 100 98 97 97 96 94 92 91 86 84 86 85 84 82 82 83 82
115 98 118 127 91 57 89 105 109 110 117 134 129 111 137 165 156 145 137 134 131 130 124 121 124 124 120 119 116 114 113 110 107 104 101 100 100 98 93 90 88 86 88 87 88 86 84 81 80
132 102 84 109 112 112 78 83 115 119 119 132 123 133 165 189 164 136 130 129 129 133 137 138 133 127 125 127 128 122 123 119 115 111 105 103 102 96 91 88 86 88 87 82 84 88 88 89 83
105 87 124 165 150 173 125 94 89 94 101 97 108 149 164 159 142 127 124 119 134 141 153 150 145 142 140 140 139 132 134 134 122 117 115 110 100 93 89 90 89 90 88 84 81 81 88 89 86
100 123 187 180 162 155 141 130 133 95 91 90 88 107 138 144 142 143 149 152 153 159 164 161 160 155 158 157 143 146 147 144 140 136 136 136 129 116 102 94 90 88 87 82 77 75 76 77 78
129 153 162 152 155 139 139 137 117 124 132 157 152 154 154 149 150 155 163 167 168 170 166 164 169 168 164 156 156 157 156 162 172 174 172 149 134 125 101 84 70 62 62 60 59 64 66 75 80
122 164 153 160 153 142 146 134 109 143 178 172 161 161 157 157 164 167 166 171 164 161 171 171 169 161 159 157 163 160 160 175 186 179 159 139 128 124 118 104 82 69 67 71 71 76 79 77 81
128 174 144 153 139 139 127 130 132 163 164 155 149 150 153 161 166 169 166 165 159 160 168 173 173 160 157 156 168 144 160 165 156 135 139 137 129 127 119 101 94 88 85 88 88 86 85 86 87
171 158 160 160 149 146 124 115 120 181 152 149 150 158 158 163 166 160 157 163 168 161 163 166 162 161 147 144 137 134 129 122 118 112 126 132 130 126 115 103 92 87 90 90 92 94 91 83 84
142 121 10 194 171 167 119 100 190 186 150 152 162 168 164 166 160 163 168 165 167 163 160 159 153 141 132 132 121 110 98 101 97 103 115 122 126 122 114 103 89 82 86 86 84 79 79 82 78
65 94 231 259 185 172 133 212 238 193 153 164 176 179 175 173 165 166 163 157 158 155 155 158 149 137 134 128 113 98 94 94 90 99 103 109 115 116 111 102 98 99 91 88 89 82 76 70 72
36 200 223 261 210 176 155 208 235 187 158 172 186 182 176 169 165 171 165 160 157 157 152 148 139 136 134 121 107 95 96 89 91 94 92 102 111 118 114 107 108 105 93 83 93 84 92 84 73
213 214 224 227 217 158 171 211 209 186 171 175 187 189 178 175 184 177 166 159 155 152 148 144 137 132 127 112 94 78 71 72 77 89 93 103 111 118 117 114 109 107 97 81 82 88 76 88 88
204 207 234 237 211 164 191 214 212 197 182 177 181 190 190 192 193 169 156 149 143 139 140 141 137 138 132 123 121 111 104 93 79 91 101 110 115 122 120 115 112 110 111 116 113 102 83 57 68
226 228 254 283 212 171 196 227 222 199 195 188 183 186 189 186 175 165 151 147 148 151 148 145 147 147 148 151 154 148 143 136 116 83 83 101 116 128 129 126 129 124 116 108 108 108 99 54 60
235 210 212 220 319 349 136 318 268 239 207 196 187 184 181 177 175 169 159 154 151 154 158 158 155 148 148 140 116 95 70 54 47 52 54 68 118 125 128 136 138 136 134 143 146 136 126 127 19
239 227 200 196 144 263 174 238 270 232 211 208 195 180 180 175 172 170 162 158 161 166 160 156 153 148 148 140 135 135 132 143 190 183 161 93 115 126 131 134 140 146 149 156 169 151 141 136 141
223 222 209 210 187 269 245 178 272 226 212 220 207 187 177 174 171 172 170 168 167 164 158 154 149 149 147 142 143 140 136 156 158 120 104 74 59 108 129 133 137 150 161 164 159 145 145 149 155
200 52 25 47 81 271 236 184 257 221 209 207 202 188 174 168 168 169 169 158 159 156 152 148 145 149 152 143 145 148 151 154 141 133 146 147 30 8 114 131 134 152 160 165 169 165 157 162 155
79 87 31 352 357 252 234 171 243 235 203 190 185 184 178 167 166 167 161 159 159 153 154 153 147 152 153 146 148 154 159 159 160 164 172 165 171 204 218 148 156 162 172 169 162 161 166 168 163
185 146 163 199 223 276 304 203 246 247 201 172 162 162 162 166 169 171 171 168 163 160 157 152 151 154 158 158 166 163 159 161 169 165 159 176 191 202 190 172 169 181 171 161 156 159 175 168 174
154 181 176 153 211 262 277 271 307 10 112 143 150 153 167 179 177 170 166 165 164 163 162 160 157 155 161 164 159 162 171 167 167 163 153 168 189 196 172 167 167 183 165 146 150 160 181 169 184
163 159 100 126 181 248 274 247 232 220 189 168 164 168 174 174 176 168 167 163 165 165 160 157 161 166 165 157 157 164 172 167 160 149 158 171 194 184 152 153 168 176 159 140 143 167 190 165 191
158 145 125 140 160 167 245 267 232 204 191 179 179 175 173 172 170 168 165 160 153 149 148 147 152 151 150 153 149 146 155 148 142 158 180 187 187 165 158 163 158 178 192 176 159 174 173 179 206
181 180 152 164 212 175 189 263 287 201 184 169 168 167 163 164 162 157 154 151 147 146 152 154 154 150 155 149 137 130 126 120 118 133 181 189 181 181 158 141 145 177 183 175 164 176 173 187 214
Height
1506 1505 1505 1506 1509 1519 1521 1515 1509 1508 1508 1509 1508 1509 1513 1517 1520 1526 1523 1520 1520 1519 1518 1517 1516 1515 1515 1514 1514 1513 1513 1513 1512 1512 1512 1512 1512 1511 1511 1511 1511 1511 1511 1511 1511 1512 1512 1512 1512
1506 1505 1506 1506 1516 1529 1524 1513 1510 1507 1508 1509 1510 1512 1514 1518 1519 1521 1521 1521 1521 1520 1519 1518 1517 1516 1516 1515 1515 1514 1514 1513 1513 1513 1513 1513 1512 1512 1512 1512 1512 1512 1512 1512 1512 1512 1512 1512 1513
1506 1505 1507 1509 1518 1525 1520 1511 1508 1507 1508 1508 1512 1514 1517 1520 1520 1520 1521 1521 1521 1520 1520 1519 1518 1517 1516 1516 1516 1515 1515 1514 1514 1514 1514 1513 1513 1513 1513 1513 1513 1513 1513 1513 1512 1513 1513 1512 1512
1505 1506 1508 1514 1518 1514 1511 1509 1507 1508 1510 1510 1512 1517 1519 1521 1521 1521 1521 1521 1521 1521 1520 1520 1519 1518 1517 1517 1517 1517 1516 1516 1515 1515 1515 1514 1515 1514 1514 1514 1514 1514 1514 1513 1514 1513 1513 1513 1513
1505 1506 1513 1519 1516 1510 1506 1506 1506 1508 1510 1513 1513 1518 1521 1522 1522 1522 1522 1522 1522 1522 1521 1521 1520 1519 1519 1518 1518 1518 1518 1517 1517 1516 1516 1516 1516 1516 1516 1515 1515 1515 1515 1515 1515 1515 1514 1514 1513
1505 1507 1520 1524 1516 1510 1507 1507 1507 1509 1512 1514 1515 1519 1522 1523 1522 1523 1523 1523 1523 1523 1522 1522 1521 1521 1520 1520 1519 1519 1519 1519 1518 1518 1518 1517 1517 1517 1517 1517 1517 1516 1516 1516 1516 1516 1516 1515 1515
1506 1511 1518 1518 1517 1513 1509 1507 1508 1510 1512 1514 1515 1519 1522 1523 1523 1524 1524 1524 1524 1524 1523 1523 1523 1522 1522 1521 1521 1521 1520 1520 1520 1520 1519 1519 1519 1519 1518 1518 1518 1518 1518 1518 1517 1517 1517 1517 1517
1504 1510 1516 1518 1518 1515 1509 1509 1509 1510 1512 1514 1515 1517 1520 1523 1524 1524 1524 1525 1525 1525 1524 1524 1524 1523 1523 1522 1522 1522 1522 1522 1522 1521 1521 1521 1521 1520 1520 1520 1519 1519 1519 1519 1519 1518 1518 1518 1518
1504 1513 1519 1516 1515 1512 1509 1509 1510 1511 1512 1514 1515 1516 1518 1521 1523 1524 1525 1525 1525 1525 1525 1525 1524 1524 1524 1524 1524 1524 1524 1524 1523 1523 1523 1522 1522 1522 1521 1521 1521 1521 1521 1520 1520 1520 1520 1520 1520
1503 1514 1512 1508 1508 1508 1509 1509 1510 1512 1513 1515 1516 1517 1519 1521 1522 1523 1524 1525 1525 1525 1525 1526 1525 1525 1525 1525 1525 1525 1525 1525 1525 1524 1524 1524 1523 1523 1523 1523 1523 1522 1522 1522 1522 1522 1522 1522 1522
1503 1508 1506 1505 1506 1507 1509 1509 1510 1512 1515 1514 1515 1517 1519 1520 1522 1523 1524 1524 1525 1525 1526 1526 1526 1526 1526 1526 1526 1526 1526 1526 1525 1525 1525 1525 1525 1524 1524 1524 1524 1524 1523 1523 1523 1523 1523 1523 1523
1503 1504 1504 1505 1505 1507 1508 1509 1511 1511 1512 1513 1514 1515 1518 1520 1521 1522 1523 1524 1525 1525 1526 1526 1526 1526 1527 1527 1527 1527 1527 1527 1526 1526 1526 1526 1525 1525 1525 1525 1525 1525 1525 1525 1524 1524 1524 1524 1524
1504 1504 1504 1504 1505 1506 1507 1509 1510 1511 1512 1513 1515 1516 1518 1519 1521 1522 1523 1524 1525 1525 1526 1526 1527 1527 1527 1528 1528 1528 1527 1527 1527 1527 1527 1527 1526 1526 1526 1526 1526 1526 1526 1525 1525 1525 1525 1525 1525
1503 1503 1504 1504 1505 1506 1508 1509 1510 1511 1512 1513 1515 1516 1517 1519 1520 1521 1522 1523 1524 1525 1526 1526 1527 1527 1528 1528 1528 1528 1528 1528 1527 1527 1527 1527 1527 1527 1526 1526 1526 1526 1526 1526 1526 1526 1525 1525 1525
1502 1504 1506 1505 1505 1506 1508 1512 1510 1510 1511 1513 1514 1515 1517 1518 1520 1520 1521 1523 1524 1525 1525 1526 1527 1527 1528 1528 1528 1528 1528 1528 1528 1527 1527 1527 1527 1527 1527 1527 1527 1527 1527 1527 1526 1526 1526 1526 1526
1504 1509 1514 1507 1504 1505 1511 1518 1509 1509 1510 1512 1514 1515 1516 1517 1518 1520 1521 1522 1523 1524 1525 1526 1527 1527 1528 1528 1528 1528 1528 1528 1528 1528 1527 1527 1527 1527 1527 1527 1527 1527 1527 1527 1527 1527 1526 1526 1526
1511 1517 1516 1509 1503 1504 1509 1514 1508 1508 1509 1511 1513 1514 1515 1516 1518 1519 1520 1521 1522 1523 1524 1525 1526 1527 1528 1528 1529 1529 1529 1528 1528 1528 1527 1527 1527 1527 1527 1527 1527 1527 1527 1527 1527 1527 1527 1526 1526
1517 1516 1513 1511 1504 1504 1509 1510 1507 1507 1508 1509 1511 1512 1513 1514 1516 1517 1519 1520 1521 1523 1524 1525 1526 1527 1528 1528 1528 1529 1529 1528 1528 1528 1527 1527 1527 1527 1527 1527 1527 1527 1527 1527 1527 1527 1526 1526 1526
1506 1509 1512 1507 1501 1504 1508 1509 1506 1506 1506 1507 1509 1510 1512 1513 1515 1516 1517 1519 1520 1522 1523 1524 1525 1526 1527 1527 1528 1528 1528 1528 1528 1527 1527 1527 1527 1527 1527 1527 1527 1527 1527 1527 1527 1526 1526 1526 1526
1504 1509 1510 1505 1499 1502 1507 1507 1504 1503 1503 1504 1505 1507 1509 1511 1513 1515 1516 1518 1519 1520 1522 1523 1525 1525 1526 1527 1527 1527 1528 1528 1528 1527 1527 1527 1527 1527 1527 1527 1527 1527 1527 1527 1527 1526 1526 1526 1526
1504 1507 1507 1506 1502 1502 1506 1512 1507 1502 1502 1503 1504 1505 1506 1508 1510 1513 1514 1516 1518 1519 1520 1522 1523 1524 1525 1526 1527 1527 1527 1527 1527 1527 1527 1527 1527 1527 1527 1527 1527 1527 1527 1526 1526 1526 1525 1525 1526
1506 1498 1499 1502 1510 1517 1511 1526 1511 1504 1503 1501 1502 1502 1504 1506 1508 1510 1512 1514 1516 1517 1519 1521 1522 1523 1524 1525 1525 1525 1526 1526 1526 1527 1527 1527 1527 1527 1527 1526 1526 1526 1526 1526 1525 1525 1525 1525 1525
1497 1493 1496 1500 1508 1515 1514 1522 1516 1505 1505 1501 1499 1500 1501 1503 1506 1508 1510 1512 1514 1516 1518 1520 1521 1522 1523 1524 1524 1524 1525 1525 1526 1526 1526 1526 1526 1526 1526 1525 1525 1525 1525 1524 1524 1524 1524 1524 1524
1491 1496 1501 1507 1514 1525 1514 1521 1518 1507 1500 1497 1497 1498 1499 1502 1504 1506 1508 1510 1512 1514 1516 1518 1519 1521 1522 1522 1523 1523 1524 1524 1525 1525 1525 1525 1525 1525 1524 1524 1524 1523 1523 1523 1523 1523 1523 1523 1523
1495 1510 1525 1527 1532 1528 1510 1515 1512 1495 1490 1491 1493 1495 1497 1499 1501 1504 1506 1508 1510 1512 1514 1516 1517 1519 1520 1521 1521 1522 1523 1523 1523 1523 1523 1523 1523 1523 1523 1522 1522 1522 1521 1521 1521 1521 1521 1522 1522
1497 1507 1526 1534 1534 1526 1511 1514 1503 1489 1487 1488 1490 1493 1495 1497 1499 1501 1503 1505 1507 1510 1512 1514 1515 1517 1518 1519 1520 1521 1521 1522 1522 1522 1522 1522 1522 1522 1521 1521 1520 1520 1520 1519 1519 1519 1520 1520 1520
1498 1504 1505 1519 1520 1526 1519 1507 1496 1489 1488 1489 1490 1492 1494 1496 1498 1499 1501 1504 1506 1508 1510 1512 1513 1515 1516 1517 1518 1519 1519 1520 1520 1520 1520 1520 1520 1520 1519 1519 1519 1518 1518 1517 1517 1517 1517 1518 1518
1490 1496 1509 1518 1527 1532 1521 1513 1508 1495 1492 1490 1491 1492 1493 1495 1497 1498 1500 1502 1504 1507 1508 1510 1512 1513 1514 1515 1516 1517 1518 1518 1518 1518 1518 1518 1518 1517 1517 1516 1516 1516 1515 1515 1515 1515 1515 1516 1516
1493 1497 1504 1515 1519 1528 1529 1517 1492 1490 1488 1489 1489 1490 1492 1494 1495 1497 1499 1501 1503 1505 1507 1508 1510 1511 1512 1513 1514 1515 1515 1516 1516 1516 1516 1516 1515 1515 1514 1514 1513 1513 1513 1512 1512 1512 1513 1513 1513
1488 1492 1501 1514 1517 1519 1524 1516 1486 1485 1485 1486 1488 1490 1491 1492 1494 1496 1497 1499 1501 1503 1505 1506 1507 1509 1510 1511 1512 1513 1513 1513 1513 1513 1513 1513 1513 1513 1512 1511 1511 1510 1510 1509 1509 1510 1510 1510 1510